This is the latest recevied weather packets stored in our database for station/object N5ZP. If no packets are shown the sender has not sent any weather packets the latest 10 day(s).
| Time | Temp. | Humidity | Pressure | Rain* | Wind** | Luminosity | Snow |
|---|---|---|---|---|---|---|---|
| 1788608644 | 22.78° C | 86% | 1011.1 hPa | 0 mm | - | 0 W/m² | - |
| 1788608343 | 23.33° C | 85% | 1010.8 hPa | 0 mm | - | 0 W/m² | - |
| 1788608039 | 23.33° C | 84% | 1010.9 hPa | 0 mm | - | 0 W/m² | - |
| 1788607734 | 23.89° C | 84% | 1010.8 hPa | 0 mm | - | 0 W/m² | - |
| 1788607429 | 23.89° C | 83% | 1011.2 hPa | 0 mm | - | 0 W/m² | - |
| 1788607124 | 24.44° C | 83% | 1010.9 hPa | 0 mm | - | 0 W/m² | - |
| 1788606819 | 24.44° C | 82% | 1010.6 hPa | 0 mm | - | 0 W/m² | - |
| 1788606518 | 24.44° C | 82% | 1010.9 hPa | 0 mm | - | 0 W/m² | - |
| 1788606218 | 24.44° C | 82% | 1011.1 hPa | 0 mm | - | 0 W/m² | - |
| 1788605913 | 24.44° C | 82% | 1010.8 hPa | 0 mm | - | 0 W/m² | - |
| 1788605613 | 24.44° C | 82% | 1010.8 hPa | 0 mm | - | 0 W/m² | - |
| 1788605307 | 24.44° C | 82% | 1010.7 hPa | 0 mm | - | 0 W/m² | - |
| 1788605004 | 24.44° C | 81% | 1010.7 hPa | 0 mm | - | 0 W/m² | - |
| 1788604703 | 24.44° C | 81% | 1011.1 hPa | 0 mm | - | 0 W/m² | - |
| 1788604398 | 24.44° C | 81% | 1010.7 hPa | 0 mm | - | 0 W/m² | - |
| 1788604094 | 24.44° C | 81% | 1010.6 hPa | 0 mm | - | 0 W/m² | - |
| 1788603791 | 24.44° C | 81% | 1010.7 hPa | 0 mm | - | 0 W/m² | - |
| 1788603490 | 23.89° C | 82% | 1010.8 hPa | 0 mm | - | 0 W/m² | - |
| 1788603189 | 23.89° C | 84% | 1010.7 hPa | 0 mm | - | 0 W/m² | - |
| 1788602883 | 23.89° C | 84% | 1010.8 hPa | 0 mm | - | 0 W/m² | - |
| 1788602580 | 23.33° C | 85% | 1010.6 hPa | 0 mm | - | 0 W/m² | - |
| 1788602279 | 22.78° C | 86% | 1010.9 hPa | 0 mm | - | 0 W/m² | - |
| 1788601979 | 22.78° C | 86% | 1010.8 hPa | 0 mm | - | 0 W/m² | - |
| 1788601674 | 22.78° C | 85% | 1010.9 hPa | 0 mm | - | 0 W/m² | - |
| 1788601369 | 22.78° C | 85% | 1010.8 hPa | 0 mm | - | 0 W/m² | - |
* Rain latest hour (hover to see other rain measurements)
** Current wind speed in m/s (hover to see current wind gust speed)